Terug naar catalogus

STARLINK-4375

ActiefCommunicatieSSO
NORAD 53192·PAYLOAD·🇺🇸 United States

Gelanceerd Jul 22, 2022 vanaf Vandenberg Space Force Base

Loading…

Volgende Passages (komende 24 uur)

TLE

VersSource: CelesTrak SupGP

Epoch: Sep 14, 2026, 21:19 UTC

1 53192C 22084D   26257.88868056 -.00022548  00000+0 -70021-3 0  2579
2 53192  97.2846 313.6193 0001711  76.4460 222.2043 15.33437915    18

Volg STARLINK-4375 in realtime met AllMySat

Download on the App Store